Torna al catalogo

STARLINK-34875

AttivoComunicazioniVLEO
NORAD 65689·PAYLOAD·🇺🇸 United States

Lanciato Sep 21, 2025 da Cape Canaveral Space Force Station

Loading…

Prossimi Passaggi (prossime 24 ore)

TLE

AggiornatoSource: CelesTrak SupGP

Epoca: Sep 14, 2026, 14:24 UTC

1 65689C 25212P   26257.60048611  .00044832  00000+0  13252-2 0  2576
2 65689  53.1584 185.3985 0001341  87.9612   5.3601 15.34353017    11

Traccia STARLINK-34875 in tempo reale con AllMySat

Download on the App Store